Date String (YYYY-MM-DD hh:mm:ss) UTC,Instrument flags,Ambient pressure (hPa),Sample flow (lpm),Bypass flow (lpm),Sample temperature (°C),Ambient temperature (°C),ASC tube jacket temperature (°C),LED temperature (°C),Box temperature (°C),Sample RH (%),Span deviation,Mass concentration (μg/m³),Mass concentration (μg/m³),Mass concentration (μg/m³)
DateTimeUTC,F1_M11,P_M11,Q1_M11,Q2_M11,T1_M11,T2_M11,T3_M11,T4_M11,T5_M11,U1_M11,ZSPAN_M11,X0_M11,X2_M11,X1_M11
2022-07-11 00:00:00,,0829.8,5.00,0.00,42.9,41.7,00.0,51.5,43.8,08.6,0000.0,0010.84,0004.61,0003.98
2022-07-11 00:01:00,,0829.9,5.00,0.00,42.9,41.7,00.0,51.5,43.8,08.8,0000.0,0010.65,0004.57,0003.98
2022-07-11 00:02:00,,0829.9,4.99,0.00,42.9,41.7,00.0,51.5,43.8,09.2,0000.0,0010.48,0004.55,0003.95
2022-07-11 00:03:00,,0829.8,5.00,0.00,42.9,41.7,00.0,51.5,43.8,09.1,0000.0,0010.49,0004.50,0003.89
2022-07-11 00:04:00,,0829.9,5.00,0.00,42.9,41.6,00.0,51.5,43.8,09.2,0000.0,0010.12,0004.42,0003.81
2022-07-11 00:05:00,,0829.8,5.00,0.00,42.9,41.6,00.0,51.5,43.8,09.3,0000.0,0010.06,0004.31,0003.74
2022-07-11 00:06:00,,0829.8,5.01,0.00,42.9,41.6,00.0,51.5,43.8,09.3,0000.0,0010.29,0004.24,0003.68
2022-07-11 00:07:00,,0829.7,5.00,0.00,42.9,41.6,00.0,51.5,43.8,09.3,0000.0,0010.38,0004.18,0003.63
2022-07-11 00:08:00,,0829.7,5.00,0.00,42.9,41.6,00.0,51.5,43.8,09.5,0000.0,0009.97,0004.12,0003.57
2022-07-11 00:09:00,,0829.6,4.99,0.00,42.9,41.5,00.0,51.5,43.8,09.6,0000.0,0009.92,0004.06,0003.51
2022-07-11 00:10:00,,0829.7,4.99,0.00,42.9,41.5,00.0,51.5,43.8,09.7,0000.0,0009.72,0004.01,0003.48
2022-07-11 00:11:00,,0829.7,5.00,0.00,42.9,41.5,00.0,51.5,43.7,09.8,0000.0,0009.33,0003.98,0003.44
2022-07-11 00:12:00,,0829.6,5.01,0.00,42.9,41.5,00.0,51.5,43.7,10.0,0000.0,0009.50,0003.98,0003.40
2022-07-11 00:13:00,,0829.6,5.00,0.00,42.9,41.4,00.0,51.5,43.7,10.0,0000.0,0009.42,0004.00,0003.39
2022-07-11 00:14:00,,0829.5,4.99,0.00,42.9,41.4,00.0,51.5,43.7,09.9,0000.0,0009.40,0004.04,0003.42
2022-07-11 00:15:00,,0829.6,5.00,0.00,42.9,41.4,00.0,51.5,43.7,09.9,0000.0,0008.91,0004.06,0003.47
2022-07-11 00:16:00,,0829.7,5.00,0.00,42.9,41.3,00.0,51.5,43.7,10.0,0000.0,0009.02,0004.14,0003.51
2022-07-11 00:17:00,,0829.6,5.01,0.00,42.9,41.3,00.0,51.5,43.7,10.0,0000.0,0008.78,0004.19,0003.55
2022-07-11 00:18:00,,0829.6,5.01,0.00,42.9,41.3,00.0,51.5,43.7,10.0,0000.0,0008.88,0004.20,0003.58
2022-07-11 00:19:00,,0829.6,4.99,0.00,42.8,41.3,00.0,51.5,43.6,09.9,0000.0,0008.84,0004.20,0003.60
2022-07-11 00:20:00,,0829.7,5.00,0.00,42.8,41.2,00.0,51.5,43.6,09.9,0000.0,0008.38,0004.22,0003.62
2022-07-11 00:21:00,,0829.8,5.01,0.00,42.8,41.2,00.0,51.5,43.6,09.9,0000.0,0008.24,0004.22,0003.63
2022-07-11 00:22:00,,0829.9,5.00,0.00,42.8,41.2,00.0,51.4,43.6,10.0,0000.0,0008.10,0004.21,0003.63
2022-07-11 00:23:00,,0829.8,4.99,0.00,42.8,41.2,00.0,51.4,43.6,10.4,0000.0,0007.96,0004.19,0003.64
2022-07-11 00:24:00,,0829.8,5.00,0.00,42.8,41.1,00.0,51.4,43.5,11.1,0000.0,0008.31,0004.18,0003.65
2022-07-11 00:25:00,,0830.0,5.00,0.00,42.8,41.1,00.0,51.4,43.5,11.3,0000.0,0008.59,0004.19,0003.67
2022-07-11 00:26:00,,0830.0,4.99,0.00,42.7,41.1,00.0,51.4,43.5,11.5,0000.0,0009.28,0004.22,0003.69
2022-07-11 00:27:00,,0830.1,5.00,0.00,42.7,41.0,00.0,51.4,43.5,11.6,0000.0,0009.68,0004.23,0003.70
2022-07-11 00:28:00,,0830.0,5.01,0.00,42.7,41.0,00.0,51.4,43.5,11.5,0000.0,0010.56,0004.26,0003.71
2022-07-11 00:29:00,,0830.1,5.00,0.00,42.7,40.9,00.0,51.4,43.5,11.5,0000.0,0010.30,0004.34,0003.74
2022-07-11 00:30:00,,0830.1,5.00,0.00,42.7,40.9,00.0,51.3,43.4,11.5,0000.0,0010.60,0004.38,0003.76
2022-07-11 00:31:00,,0830.2,5.00,0.00,42.6,40.9,00.0,51.3,43.4,11.3,0000.0,0010.71,0004.41,0003.77
2022-07-11 00:32:00,,0830.2,5.01,0.00,42.6,40.8,00.0,51.3,43.4,11.2,0000.0,0010.94,0004.45,0003.77
2022-07-11 00:33:00,,0830.4,5.00,0.00,42.6,40.8,00.0,51.3,43.4,11.2,0000.0,0011.51,0004.51,0003.78
2022-07-11 00:34:00,,0830.4,4.99,0.00,42.6,40.8,00.0,51.3,43.4,11.2,0000.0,0011.82,0004.55,0003.78
2022-07-11 00:35:00,,0830.4,5.01,0.00,42.6,40.8,00.0,51.3,43.3,11.4,0000.0,0011.55,0004.54,0003.76
2022-07-11 00:36:00,,0830.5,5.00,0.00,42.5,40.7,00.0,51.2,43.3,11.5,0000.0,0011.16,0004.51,0003.73
2022-07-11 00:37:00,,0830.5,5.00,0.00,42.5,40.7,00.0,51.2,43.3,11.5,0000.0,0010.82,0004.53,0003.71
2022-07-11 00:38:00,,0830.5,5.00,0.00,42.5,40.7,00.0,51.2,43.3,11.5,0000.0,0010.50,0004.50,0003.68
2022-07-11 00:39:00,,0830.6,5.00,0.00,42.5,40.7,00.0,51.2,43.3,11.6,0000.0,0009.62,0004.46,0003.66
2022-07-11 00:40:00,,0830.6,5.00,0.00,42.5,40.7,00.0,51.2,43.3,11.6,0000.0,0009.35,0004.42,0003.64
2022-07-11 00:41:00,,0830.6,5.01,0.00,42.4,40.7,00.0,51.1,43.2,11.6,0000.0,0009.09,0004.38,0003.62
2022-07-11 00:42:00,,0830.6,5.00,0.00,42.4,40.6,00.0,51.1,43.2,11.6,0000.0,0008.89,0004.35,0003.61
2022-07-11 00:43:00,,0830.7,4.99,0.00,42.4,40.6,00.0,51.1,43.2,11.3,0000.0,0008.68,0004.32,0003.60
2022-07-11 00:44:00,,0830.8,5.00,0.00,42.4,40.6,00.0,51.1,43.2,11.3,0000.0,0008.11,0004.28,0003.60
2022-07-11 00:45:00,,0830.9,5.00,0.00,42.4,40.6,00.0,51.0,43.2,11.3,0000.0,0008.23,0004.27,0003.60
2022-07-11 00:46:00,,0830.9,5.01,0.00,42.3,40.6,00.0,51.0,43.1,11.4,0000.0,0008.23,0004.25,0003.60
2022-07-11 00:47:00,,0830.9,4.99,0.00,42.3,40.6,00.0,51.0,43.1,11.2,0000.0,0008.29,0004.22,0003.58
2022-07-11 00:48:00,,0830.9,4.99,0.00,42.3,40.5,00.0,51.0,43.1,11.0,0000.0,0007.99,0004.12,0003.55
2022-07-11 00:49:00,,0830.9,5.01,0.00,42.3,40.5,00.0,51.0,43.1,10.5,0000.0,0007.75,0004.08,0003.52
2022-07-11 00:50:00,,0831.0,5.00,0.00,42.3,40.5,00.0,51.0,43.1,10.4,0000.0,0007.67,0004.02,0003.48
2022-07-11 00:51:00,,0830.9,4.99,0.00,42.3,40.5,00.0,50.9,43.1,10.5,0000.0,0007.60,0003.95,0003.44
2022-07-11 00:52:00,,0830.9,5.01,0.00,42.2,40.5,00.0,50.9,43.0,10.6,0000.0,0007.46,0003.87,0003.39
2022-07-11 00:53:00,,0830.9,5.00,0.00,42.2,40.5,00.0,50.9,43.0,10.6,0000.0,0007.34,0003.81,0003.35
2022-07-11 00:54:00,,0831.0,5.00,0.00,42.2,40.5,00.0,50.9,43.0,10.6,0000.0,0007.34,0003.78,0003.32
2022-07-11 00:55:00,,0831.1,5.00,0.00,42.2,40.5,00.0,50.9,43.0,10.6,0000.0,0007.50,0003.75,0003.29
2022-07-11 00:56:00,,0831.0,5.00,0.00,42.2,40.5,00.0,50.8,43.0,10.7,0000.0,0007.35,0003.69,0003.25
2022-07-11 00:57:00,,0831.1,5.01,0.00,42.2,40.5,00.0,50.8,43.0,10.8,0000.0,0007.61,0003.70,0003.23
2022-07-11 00:58:00,,0831.1,5.00,0.00,42.2,40.5,00.0,50.8,43.0,11.0,0000.0,0007.48,0003.70,0003.23
2022-07-11 00:59:00,,0831.2,5.00,0.00,42.1,40.5,00.0,50.8,43.0,11.1,0000.0,0007.53,0003.74,0003.24
